Location: Czu?�w
(50.1404°N, 18.9919°E)
Time: 10:11:23
(UTC+00:00)

CRYOSAT 2 - Pass Details

Date: 27 October 2020
Orbit: 714 x 724 km, 92.0° (Epoch: 25 November)

Event Time Altitude Azimuth Distance (km) Brightness Sun altitude
Rises 17:44:03 0° 3° (N) 3,135 7.7 -22.2°
Reaches altitude 10° 17:46:20 10° 3° (N) 2,209 6.9 -22.6°
Maximum altitude 17:51:14 83° 277° (W) 728 4.3 -23.3°
Drops below altitude 10° 17:56:04 10° 190° (S) 2,191 6.9 -24.1°
Sets 17:58:20 0° 189° (S) 3,106 7.7 -24.5°
